Location: *
(49.0931°N, 0.8567°W)
Time: 16:51:46
(UTC+00:00)

Daily predictions for brighter satellites

Satellite Brightness Start Highest point End
(mag) Time Altitude Azimuth Time Altitude Azimuth Time Altitude Azimuth
PSLV R/B 3.9 17:21:01 10° NNE 17:25:07 72° ESE 17:29:13 10° S
Cosmos 1626 3.0 17:22:41 10° SSW 17:26:18 52° WNW 17:29:57 10° N
Starlink K 3.7 17:23:16 10° WNW 17:26:23 39° N 17:29:29 10° ENE
Cosmos 1943 4.4 17:23:11 10° N 17:27:31 22° NE 17:31:51 10° E
Starlink M 3.7 17:25:29 10° WNW 17:28:36 39° N 17:31:43 10° ENE
Cosmos 1953 Rocket 4.2 17:25:30 10° SSE 17:29:36 36° E 17:33:43 10° NNE
CZ-4B R/B 3.7 17:28:29 10° NNW 17:30:51 21° WNW 17:33:14 10° WSW
Cosmos 1689 Rocket 3.8 17:28:08 10° N 17:30:52 34° WNW 17:33:35 10° SW
Iridium 96 4.3 17:29:02 10° NNE 17:31:17 32° E 17:33:37 10° SSE
Cosmos 1340 Rocket 4.1 17:27:47 10° NNW 17:31:37 47° W 17:35:28 10° S
COSMO-SKYMED 1 3.6 17:28:05 10° NE 17:31:49 27° E 17:35:30 10° SSE
Meteor 1-21 Rocket 4.3 17:27:35 10° S 17:33:08 64° E 17:38:51 10° NNE
Cosmos 1758 Rocket 3.5 17:29:17 10° S 17:33:31 63° E 17:37:50 10° NNE
CZ-4 R/B 2.2 17:30:12 10° SE 17:33:49 30° ENE 17:37:30 10° N
Starlink AR 3.4 17:32:16 10° WNW 17:34:45 34° N 17:37:04 11° ENE
FengYun 1-2 T 4.4 17:31:37 10° SE 17:37:06 54° ENE 17:42:37 10° N
ATLAS CENTAUR R/B 1.3 17:33:18 10° NW 17:37:22 59° NE 17:41:07 10° SE
Cosmos 2218 Rocket 4.3 17:34:42 10° SSE 17:40:44 47° E 17:46:50 10° NNE
SL-8 R/B 4.0 17:41:47 10° WSW 17:46:33 64° SSE 17:50:52 13° E
Shenzhou-11 Module 3.8 17:44:27 10° SW 17:46:37 21° S 17:48:46 10° SE
Cosmos 2251 Rocket 3.5 17:44:00 10° NNW 17:49:19 70° ENE 17:54:38 10° SSE
Cosmos 1825 Rocket 3.5 17:51:26 10° S 17:55:46 87° W 18:00:07 10° N
Cosmos 1703 3.5 17:51:59 10° S 17:55:48 49° E 17:59:40 10° NNE
H-2A R/B 3.6 17:55:39 14° ENE 17:56:46 15° NE 17:59:32 10° NNE
ATLAS 5 CENTAUR R/B 3.8 17:55:53 10° NW 17:59:08 18° N 18:02:41 10° NNE
Cosmos 1356 Rocket 3.5 17:56:38 10° N 18:00:35 48° ENE 18:04:35 10° SSE
Envisat 3.3 17:56:31 10° S 18:01:35 71° WSW 18:06:41 10° NNW
USA 32 4.3 17:56:33 10° S 18:01:47 76° W 18:07:02 10° N
CSL-04 Rocket 3.9 17:56:49 10° SE 18:02:07 50° ENE 18:07:29 10° N
Cosmos 1455 2.3 17:58:31 10° NNW 18:02:20 81° W 18:06:06 10° S
Cosmos 2221 3.3 17:59:20 10° N 18:03:08 30° ENE 18:06:55 10° SE
Cosmos 2237 Rocket 4.3 17:58:20 10° NW 18:03:12 31° WSW 18:08:02 10° SSW
Cosmos 2366 rocket 4.0 18:01:20 10° S 18:07:31 69° E 18:13:47 10° NNE
Cosmos-2242 3.8 18:05:29 10° NNW 18:09:44 56° W 18:13:54 10° S
USA 267 3.3 18:03:50 13° NE 18:09:48 85° NNW 18:16:22 10° WSW
Starlink T 3.4 18:07:22 10° WNW 18:10:28 46° N 18:11:56 26° ENE
Starlink N 3.4 18:09:22 10° WNW 18:12:29 46° NNE 18:13:52 27° ENE
Starlink Q 3.3 18:11:37 10° WNW 18:14:46 47° NNE 18:16:03 28° ENE
Starlink P 3.3 18:13:44 10° WNW 18:16:52 48° NNE 18:18:04 30° ENE
ISS -3.7 18:14:22 10° W 18:17:46 71° NNW 18:19:20 29° ENE
CZ-4 R/B 4.4 18:13:47 10° SSE 18:17:54 88° WSW 18:22:03 10° NNW
Starlink U 3.3 18:15:49 10° WNW 18:18:58 48° NNE 18:20:05 32° ENE
Okean-O 3.5 18:14:50 10° S 18:19:10 54° W 18:23:33 10° NNW
SKYMED 2 3.5 18:15:42 10° NNE 18:20:05 80° ESE 18:24:25 10° S
Cosmos 407 Rocket 4.0 18:15:33 10° NNW 18:20:30 39° ENE 18:24:47 13° ESE
Starlink B 3.3 18:17:56 10° WNW 18:21:06 49° NNE 18:22:08 34° ENE
Cosmos 1869 4.2 18:18:40 10° NNE 18:22:05 26° ENE 18:22:05 26° ENE
CZ-2D R/B 3.3 18:18:34 10° SSE 18:22:18 53° ENE 18:26:06 10° N
Meteor 2-10 Rocket 4.1 18:17:38 10° NNW 18:22:49 59° W 18:27:47 10° S
Cosmos 1939 Rocket 2.8 18:22:51 10° SSE 18:26:45 60° ENE 18:30:44 10° N
Starlink AS 2.9 18:26:26 10° WNW 18:29:19 51° NNE 18:29:42 46° NE
Starlink BA 2.9 18:26:40 10° WNW 18:29:32 51° NNE 18:29:55 47° NE
SL-16 R/B 3.3 18:24:08 10° NW 18:29:34 48° WSW 18:34:58 10° S
Starlink AU 2.9 18:26:52 10° WNW 18:29:45 51° NNE 18:30:07 47° NE
Starlink AT 2.9 18:27:07 10° WNW 18:30:00 51° NNE 18:30:21 47° NE
Starlink BB 2.9 18:27:20 10° WNW 18:30:12 51° NNE 18:30:34 47° NE
Starlink BC 2.9 18:27:32 10° WNW 18:30:25 52° NNE 18:30:46 48° NE
Starlink BK 2.9 18:27:46 10° WNW 18:30:39 52° NNE 18:30:59 48° NE
Starlink AY 2.9 18:28:00 10° WNW 18:30:53 52° NNE 18:31:13 48° NE
Starlink AW 2.9 18:28:13 10° WNW 18:31:05 52° NNE 18:31:24 48° NE
Starlink BJ 2.9 18:28:27 10° WNW 18:31:20 52° NNE 18:31:39 49° NE
Starlink AV 2.9 18:28:42 10° WNW 18:31:35 52° NNE 18:31:53 49° NE
Starlink BD 2.9 18:28:55 10° WNW 18:31:48 52° NNE 18:32:05 49° NE
Starlink BE 2.9 18:29:06 10° WNW 18:32:01 53° NNE 18:32:19 49° NE
Starlink BM 2.9 18:29:22 10° WNW 18:32:15 52° NNE 18:32:31 50° NE
Starlink AX 2.9 18:29:37 10° WNW 18:32:29 53° NNE 18:32:45 50° NE
Starlink BH 2.9 18:29:47 10° WNW 18:32:41 53° NNE 18:32:56 50° NE
Starlink AZ 2.9 18:30:01 10° WNW 18:32:54 53° NNE 18:33:09 51° NE
Starlink BG 2.9 18:30:15 10° WNW 18:33:08 53° NNE 18:33:22 51° NE
Starlink BF 2.8 18:30:27 10° WNW 18:33:21 53° NNE 18:33:35 51° NE
Starlink BL 2.9 18:30:39 10° WNW 18:33:34 54° NNE 18:33:49 51° NE
Starlink AH 2.8 18:30:54 10° WNW 18:33:48 53° NNE 18:34:00 52° NE
Starlink AC 2.8 18:31:09 10° WNW 18:34:02 53° NNE 18:34:14 52° NE
Starlink X 2.8 18:31:22 10° WNW 18:34:15 54° NNE 18:34:27 52° NE
Starlink AE 2.9 18:31:31 10° WNW 18:34:27 54° NNE 18:34:41 52° NE
Starlink AQ 2.8 18:31:41 10° WNW 18:34:35 54° NNE 18:34:47 52° NE
Starlink Z 2.8 18:31:48 10° WNW 18:34:42 54° NNE 18:34:52 53° NNE
Starlink AK 2.8 18:32:02 10° WNW 18:34:56 54° NNE 18:35:06 53° NNE
Starlink AL 2.8 18:32:17 10° WNW 18:35:10 54° NNE 18:35:20 53° NNE
Starlink AD 2.8 18:32:30 10° WNW 18:35:24 54° NNE 18:35:33 53° NNE
Cosmos 44 3.8 18:31:12 10° WSW 18:35:36 49° NW 18:38:46 17° NNE
Cosmos 1727 Rocket 4.0 18:29:30 10° N 18:35:44 86° W 18:41:54 10° S
Starlink Y 2.8 18:32:57 10° WNW 18:35:51 55° NNE 18:35:58 54° NNE
YAOGAN 1 2.6 18:31:35 10° SSE 18:35:55 83° WSW 18:40:16 10° NNW
Starlink AG 2.8 18:33:10 10° WNW 18:36:04 55° NNE 18:36:11 54° NNE
Starlink W 2.8 18:33:19 10° WNW 18:36:15 55° NNE 18:36:23 54° NNE
Starlink D 3.1 18:33:03 10° WNW 18:36:16 56° NNE 18:36:42 50° NE
Starlink AJ 2.8 18:33:36 10° WNW 18:36:30 55° NNE 18:36:36 54° NNE
Starlink AM 2.8 18:34:05 10° WNW 18:36:58 55° NNE 18:37:03 55° NNE
Starlink AP 2.8 18:34:17 10° WNW 18:37:11 55° NNE 18:37:15 55° NNE
Starlink AA 2.8 18:34:32 10° WNW 18:37:26 56° NNE 18:37:29 55° NNE
Starlink AF 2.8 18:34:43 10° WNW 18:37:37 56° NNE 18:37:41 55° NNE
Starlink AB 2.8 18:34:58 10° WNW 18:37:52 56° NNE 18:37:55 56° NNE
Starlink AN 2.8 18:35:11 10° WNW 18:38:05 56° NNE 18:38:08 56° NNE
Starlink S 3.0 18:35:16 10° WNW 18:38:29 57° NNE 18:38:50 53° NE
Cosmos 2082 4.1 18:33:35 10° SW 18:39:09 64° WNW 18:44:48 10° NNE
Starlink C 3.0 18:37:25 10° WNW 18:40:38 59° NNE 18:40:55 56° NE
SWAS 4.5 18:37:02 10° SSW 18:41:22 83° WNW 18:44:03 23° NNE
Cosmos 1603 3.6 18:37:08 10° NNW 18:42:50 72° ENE 18:48:27 10° SE
Starlink E 3.0 18:39:38 10° WNW 18:42:52 60° NNE 18:43:03 59° NE
Cosmos 2297 Rocket 3.5 18:39:07 10° WSW 18:44:21 38° NW 18:49:38 10° NNE
Ariane Rocket 3.1 18:40:04 10° SE 18:44:59 51° ENE 18:49:55 10° N
Starlink J 3.0 18:41:52 10° WNW 18:45:06 62° NNE 18:45:12 61° NNE
USA 234 4.2 18:39:33 10° SSE 18:45:48 47° SW 18:52:05 10° WNW
ARGOS 3.9 18:46:23 31° ENE 18:46:23 31° ENE 18:51:01 10° N
Starlink V 3.0 18:44:04 10° WNW 18:47:19 63° NNE 18:47:19 63° NNE
ERBS 3.9 18:46:30 10° WNW 18:49:15 23° NNW 18:49:39 23° N
Starlink H 3.0 18:46:19 10° WNW 18:49:28 64° N 18:49:28 64° N
Cosmos 2263 Rocket 2.6 18:45:10 10° S 18:50:16 39° ESE 18:51:06 37° E
Starlink F 3.0 18:48:32 10° WNW 18:51:37 65° N 18:51:37 65° N
Meteor 1-27 4.3 18:47:44 10° NNW 18:53:18 76° W 18:58:52 10° S
Starlink G 3.1 18:50:46 10° WNW 18:53:47 64° NNW 18:53:47 64° NNW
Meteor 1-11 4.4 18:49:58 10° SSW 18:55:33 74° WNW 19:01:10 10° N
Starlink L 3.2 18:53:00 10° WNW 18:55:55 63° NNW 18:55:55 63° NNW
ADEOS Rocket 3.4 18:49:35 10° NNE 18:56:18 59° E 19:03:38 10° S
CZ-2C R/B 3.8 18:57:36 35° NE 18:57:36 35° NE 19:02:25 10° N
Cosmos 2227 Rocket 3.7 18:52:45 10° WSW 18:57:52 34° NW 19:03:00 10° NNE
Cosmos 614 Rocket 3.8 18:53:16 10° NNW 18:58:30 80° ENE 19:02:55 15° SSE
Starlink A 3.3 18:55:15 10° WNW 18:58:05 60° NW 18:58:05 60° NW
Starlink R 3.4 18:57:30 10° WNW 19:00:15 58° NW 19:00:15 58° NW
Starlink K 3.5 18:59:43 10° WNW 19:02:24 55° NW 19:02:24 55° NW
Cosmos 2056 Rocket 4.0 18:59:41 10° S 19:03:47 39° SE 19:03:47 39° SE
Starlink M 3.6 19:01:56 10° WNW 19:04:32 52° NW 19:04:32 52° NW
Cosmos 2084 4.2 19:03:23 10° NW 19:06:58 39° NNE 19:06:58 39° NNE
USA 238 DEB 3.9 19:01:27 10° S 19:07:44 46° ESE 19:08:59 42° E
USA 238 3.9 19:01:35 10° S 19:07:52 46° ESE 19:09:02 42° E
COSMO-SKYMED 1 4.1 19:04:03 10° N 19:08:02 36° WNW 19:12:00 10° SW
CZ-4 R/B 3.4 19:05:11 10° SSW 19:08:48 30° W 19:12:31 10° NNW
Cosmos 1943 3.1 19:06:40 10° NNW 19:12:22 90° WSW 19:15:42 26° SSE
Cosmos 1023 Rocket 4.3 19:09:10 10° NNW 19:14:28 74° ENE 19:15:40 53° SE
Cosmos 1821 Rocket 3.9 19:08:07 10° S 19:14:29 87° E 19:20:48 10° N
ATLAS CENTAUR R/B 4.1 19:13:10 10° WNW 19:15:48 17° WSW 19:18:20 10° SSW
Timation 1 Rocket 4.3 19:13:03 10° SSW 19:18:54 60° ESE 19:19:34 56° E
Cosmos 44 Rocket 3.1 19:17:28 10° SW 19:22:16 84° NW 19:22:39 75° NNE
Cosmos 1140 Rocket 3.3 19:20:01 10° NNW 19:25:20 86° ENE 19:26:09 64° SSE
SL-8 R/B 3.7 19:24:12 10° W 19:28:50 81° SW 19:28:50 81° SW
H-2A R/B 2.2 19:36:15 61° N 19:36:15 61° N 19:40:33 10° NNW
NOSS 3-3 (A) 4.5 19:30:48 10° NW 19:38:15 85° SW 19:41:32 41° SE
NOSS 3-3 (C) 4.4 19:30:54 10° NW 19:38:20 85° SW 19:41:35 41° SE
Cosmos 2123 Rocket 3.9 19:33:12 10° N 19:39:34 85° W 19:45:49 10° S
Cosmos 2221 4.4 19:36:56 10° NNW 19:40:40 29° W 19:44:23 10° SSW
Cosmos 967 Rocket 4.4 19:34:42 10° NW 19:41:15 82° NE 19:41:54 73° ESE
ATLAS 5 CENTAUR R/B 3.9 19:41:51 10° NNW 19:44:43 19° N 19:44:43 19° N
Cosmos 1934 Rocket 3.8 19:39:49 10° S 19:45:53 87° W 19:51:59 10° N
Cosmos 1954 Rocket 4.3 19:44:24 10° NNW 19:48:50 62° NNW 19:48:50 62° NNW
USA 267 3.8 19:51:11 43° NNE 19:52:30 49° NNW 19:58:44 10° W
ISS -0.7 19:51:27 10° WNW 19:52:18 16° WNW 19:52:18 16° WNW
CENTAUR R/B 4.3 20:05:13 10° SSW 20:06:17 16° SSW 20:06:17 16° SSW
NOSS 3-2 (A) 4.1 20:11:46 10° SW 20:15:45 47° SW 20:15:45 47° SW
ARGOS 4.4 20:27:53 37° WNW 20:27:53 37° WNW 20:31:38 10° NNW
Cosmos 2263 Rocket 3.5 20:28:56 10° WSW 20:32:52 36° W 20:32:52 36° W
